Hourly Data Report for November 01, 2017

All times are specified in Local Standard Time (LST). Add 1 hour to adjust for Daylight Saving Time where and when it is observed.

BATHURST A
NEW BRUNSWICK

47°37'47.000" N
65°44'20.000" W
58.80 m
8100505
71574
ZBF

Download Data

Hourly Data (November 2017)
Hourly Data Report for November 1, 2017
Temp Definition
°C
Dew Point Temp Definition
°C
Rel Hum Definition
%
Wind Dir Definition
10's deg

Wind Spd Definition
km/h
Visibility Definition
km
Stn Press Definition
kPa
Hmdx Definition


Wind Chill Definition


Weather Definition


TIME
00:00 Legend Double Dagger 7.5 -1.3 54 25 36 24.1 100.45     LegendNANA
01:00 Legend Double Dagger 6.8 -1.2 56 26 30 24.1 100.61     LegendNANA
02:00 Legend Double Dagger 6.5 -0.8 60 26 17 24.1 100.79     Mainly Clear
03:00 Legend Double Dagger 3.8 -1.7 67 27 17 24.1 101.02     LegendNANA
04:00 Legend Double Dagger 2.4 -1.5 75 25 11 24.1 101.18     LegendNANA
05:00 Legend Double Dagger 2.3 -2.2 72 28 9 24.1 101.29     Clear
06:00 Legend Double Dagger 1.6 -3.3 70 29 8 24.1 101.38     LegendNANA
07:00 Legend Double Dagger 0.1 -3.9 75 24 12 24.1 101.57     LegendNANA
08:00 Legend Double Dagger 1.8 -2.9 71 26 7 24.1 101.67     Mainly Clear
09:00 Legend Double Dagger 3.5 -4.9 54 27 18 24.1 101.80     LegendNANA
10:00 Legend Double Dagger 4.7 -5.8 47 27 23 24.1 101.82     LegendNANA
11:00 Legend Double Dagger 5.6 -6.8 40 24 19 24.1 101.88     Mostly Cloudy
12:00 Legend Double Dagger 6.4 -8.2 34 29 22 24.1 101.88     LegendNANA
13:00 Legend Double Dagger 6.7 -8.1 34 27 22 24.1 101.94     LegendNANA
14:00 Legend Double Dagger 7.3 -5.8 39 26 14 24.1 101.98     Mostly Cloudy
15:00 Legend Double Dagger 6.6 -6.4 39 27 14 24.1 102.02     LegendNANA
16:00 Legend Double Dagger 6.5 -6.7 38 27 12 24.1 102.12     LegendNANA
17:00 Legend Double Dagger 5.3 -7.2 40 30 5 24.1 102.18     Mostly Cloudy
18:00 Legend Double Dagger 2.2 -5.8 56 28 4 24.1 102.28     LegendNANA
19:00 Legend Double Dagger -1.0 -3.7 82 25 3 24.1 102.31   -2 LegendNANA
20:00 Legend Double Dagger -1.8 -3.8 86 24 4 24.1 102.37   -3 Cloudy
21:00 Legend Double Dagger -2.5 -4.2 88 22 4 24.1 102.44   -4 LegendNANA
22:00 Legend Double Dagger -1.9 -4.4 83 23 3 24.1 102.48   -3 LegendNANA
23:00 Legend Double Dagger -1.7 -3.7 86 25 4 24.1 102.52   -3 Cloudy

Notes on Data Quality.

Legend

  • E = Estimated
  • M = Missing
  • NA = Not Available
  • ‡ = Partner data that is not subject to review by the National Climate Archives
Date modified: